Location: Great Malvern
(52.1167°N, 2.3167°W)
Time: 01:14:41
(UTC+00:00)

CENTAUR R/B - Pass Details

Date: 18 September 2020
Orbit: 755 x 1433 km, 63.4° (Epoch: 02 October)

Event Time Altitude Azimuth Distance (km) Brightness Sun altitude
Rises 21:11:59 0° 314° (NW) 4,124 7.1 -25.5°
Reaches altitude 10° 21:14:42 10° 310° (NW) 3,242 6.3 -25.8°
Maximum altitude 21:22:24 53° 237° (WSW) 1,641 3.6 -26.7°
Enters shadow 21:25:43 36° 184° (S) 2,080 3.8 -27.1°
